UCLSAT (42765 NORAD) Tracking and Keplerian Element Data

This shows tracking and keplerian element data for the satellite.

Feedback or suggestion? Click here.




ElementValue
Catalog42765
NameUCLSAT
Epoch Orbit6053
Epoch Day202.59608266
Epoch Year2018
RAAN261.8874
Inclination97.3985
Eccentricity0.0010638
Argument of Perigee322.8327
Mean Anonmoly37.2172
Mean Motion15.21933341
Decay Rate1.014E-05
L11 42765U 17036A 18202.59608266 .00001014 00000-0 47494-4 0 9994
L22 42765 97.3985 261.8874 0010638 322.8327 37.2172 15.21933341 60536

Live tracking and technical data element details for UCLSAT (NORAD 42765). UCLSAT can be tracked NOW for your location showing map with azimuth and elevation plus other details from your city location.

Track the satellite on the map from your city or location and see movement details for azimuth, elevation, latitude, longitude, range, height, and movement on the map or in text.







IsCatalogInMostPopularTable: catalog: 42765, numindb: 86
Update: records affected: 1



GetName: 42765 UCLSAT

Hit Count: updated at: Mon, 23 Jul 2018 07:50:23 GMT